Flag for Russia Weather past 2 weeks in Kemerovo, Russia

Now
52 °F

Clear.


Feels Like: 50 °F
Forecast: 47 / 68 °F
Wind: 6 mph from Southwest

Location: Kemerovo


UV Index: 3 (Moderate)

Visibility: 10 mi


Pressure: 30.18 "Hg

Humidity: 35%

Dew point: 25 °F

Location of KemerovoLocation

Historic Weather in Kemerovo

°F

Kemerovo temperature yesterday

Maximum temperature yesterday: 63 °F (at 5:00 PM)
Minimum temperature yesterday: 37 °F (at 4:00 AM)
Average temperature yesterday: 50 °F

Past Weeks' High & Low Weather Summary

 TemperatureHumidityPressure
High63 °F (Apr 18, 5:00 PM)100% (Apr 11, 12:00 PM)30.45 "Hg (Apr 11, 12:00 PM)
Low19 °F (Apr 12, 6:00 AM)19% (Apr 18, 5:00 PM)29.45 "Hg (Apr 11, 2:30 AM)
Average41 °F51%30.10 "Hg
* Reported Midnight between Apr 3 and Apr 4 — Midnight between Apr 18 and Apr 19, Kemerovo, Weather by CustomWeather, © 2014

Note: Actual official high and low records may vary slightly from our data, if they occured in-between our weather recording intervals... More about our weather records

Advertising

Historic Weather Conditions — Data for Previous 24 hours

 ConditionsComfort  
Time TempWeatherWind HumidityBarometerVisibility
12:00 AM
Apr 19
52 °FClear.6 mph35%30.21 "Hg10 mi
11:30 PM
Apr 18
52 °FClear.6 mph38%30.21 "Hg10 mi
11:00 PM52 °FClear.3 mph38%30.21 "Hg10 mi
10:30 PM54 °FClear.6 mph33%30.21 "Hg10 mi
10:00 PM54 °FOvercast.3 mph33%30.21 "Hg4 mi
9:30 PM54 °FOvercast.3 mph33%30.21 "Hg4 mi
9:00 PM54 °FOvercast.3 mph33%30.21 "Hg4 mi
8:30 PM55 °FOvercast.3 mph31%30.21 "Hg4 mi
8:00 PM55 °FOvercast.3 mph31%30.21 "Hg4 mi
7:30 PM59 °FSunny.6 mph23%30.21 "Hg10 mi
7:00 PM59 °FSunny.8 mph23%30.21 "Hg10 mi
6:30 PM61 °FSunny.8 mph20%30.21 "Hg10 mi
6:00 PM61 °FSunny.8 mph20%30.21 "Hg10 mi
5:30 PM63 °FSunny.8 mph19%30.21 "Hg10 mi
5:00 PM63 °FSunny.10 mph19%30.21 "Hg10 mi
4:30 PM61 °FSunny.13 mph20%30.24 "Hg10 mi
4:00 PM61 °FSunny.10 mph20%30.24 "Hg10 mi
3:00 PM61 °FSunny.8 mph20%30.24 "Hg10 mi
2:30 PM61 °FSunny.8 mph27%30.24 "Hg10 mi
2:00 PM61 °FSunny.8 mph27%30.27 "Hg10 mi
1:00 PM59 °FSunny.13 mph25%30.27 "Hg10 mi
12:30 PM57 °FSunny.6 mph33%30.30 "Hg10 mi
12:00 PM57 °FSunny.8 mph33%30.30 "Hg10 mi
11:30 AM54 °FSunny.8 mph44%30.30 "Hg10 mi
11:00 AM54 °FOvercast.6 mph44%30.30 "Hg4 mi
10:30 AM48 °FOvercast.6 mph50%30.30 "Hg4 mi
10:00 AM48 °FOvercast.6 mph50%30.30 "Hg4 mi
9:30 AM43 °FSunny.6 mph57%30.30 "Hg10 mi
9:00 AM43 °FSunny.3 mph57%30.30 "Hg10 mi
8:30 AM41 °FSunny.3 mph57%30.30 "Hg10 mi
8:00 AM41 °FSunny.No wind57%30.30 "Hg10 mi
7:30 AM41 °FSunny.No wind57%30.27 "Hg10 mi
7:00 AM41 °FClear.No wind57%30.27 "Hg10 mi
6:30 AM39 °FClear.No wind65%30.27 "Hg10 mi
6:00 AM39 °FClear.No wind65%30.27 "Hg10 mi
5:30 AM39 °FClear.3 mph61%30.27 "Hg4 mi
5:00 AM39 °FClear.3 mph61%30.24 "Hg4 mi
4:30 AM37 °FClear.6 mph60%30.24 "Hg4 mi
4:00 AM37 °FClear.6 mph60%30.24 "Hg4 mi
3:30 AM39 °FClear.6 mph56%30.24 "Hg4 mi
3:00 AM39 °FClear.6 mph56%30.24 "Hg4 mi
2:30 AM41 °FClear.6 mph53%30.24 "Hg4 mi
2:00 AM41 °FClear.8 mph53%30.24 "Hg2 mi
1:30 AM43 °FClear.6 mph49%30.24 "Hg4 mi
1:00 AM43 °FClear.6 mph49%30.24 "Hg4 mi
Weather by CustomWeather, © 2014

See weather overview